Madison, WI

11:20 PM CDT on July 26, 2017 (GMT -0500)
Dane County Regional-Truax

Weather History for KMSN - January, 2015

Change the Weather History Date:

Friday, January 9, 2015

  Actual Average Record
Temperature  
Mean Temperature 4 °F 19 °F  
Max Temperature 9 °F 26 °F 53 °F (2002)
Min Temperature -1 °F 11 °F -25 °F (1875)
Degree Days  
Heating Degree Days 61 46  
Month to date heating degree days 489 414  
Since 1 July heating degree days 3301 3293  
Cooling Degree Days 0 0  
Month to date cooling degree days 0 0  
Year to date cooling degree days 0 0  
Moisture  
Dew Point -8 °F    
Average Humidity 61    
Maximum Humidity 72    
Minimum Humidity 49    
Precipitation  
Precipitation 0.01 in 0.04 in 0.75 in (1889)
Month to date precipitation 0.40 0.37  
Year to date precipitation 0.40 0.37  
Snow  
Snow 0.20 in 0.40 in 7.50 in (1889)
Month to date snowfall 6.5 3.6  
Since 1 July snowfall 15.1 21.2  
Snow Depth 3.00 in    
Sea Level Pressure  
Sea Level Pressure 30.23 in    
Wind  
Wind Speed 9 mph (WNW)    
Max Wind Speed 20 mph    
Max Gust Speed 30 mph    
Visibility 9 miles    
Events Snow    
T = Trace of Precipitation, MM = Missing Value Source: NWS Daily Summary

Daily Weather History Graph

Daily Weather History Graph

Search for Another Location

Airport or City:

Trip Planner

Search our weather history database for the weather conditions in past years. The results will help you decide how hot, cold, wet, or windy it might be!

Date:

Astronomy

Jan. 09, 2015 Rise Set
Actual Time 7:28 AM CST 4:40 PM CST
Civil Twilight 6:56 AM CST 5:12 PM CST
Nautical Twilight 6:21 AM CST 5:48 PM CST
Astronomical Twilight 5:46 AM CST 6:22 PM CST
Moon 9:22 PM CST (1/9) 9:37 AM CST (1/9)
Length of Visible Light 10h 16m
Length of Day
9h 12m
Waning Gibbous, 82% of the Moon is Illuminated
Jan 9
Waning Gibbous
Jan 13
Last Quarter
Jan 20
New
Jan 26
First Quarter
Feb 3
Full

Hourly Weather History & Observations

Time (CST) Temp. Windchill Dew Point Humidity Pressure Visibility Wind Dir Wind Speed Gust Speed Precip Events Conditions
12:53 AM 9.0 °F -5.9 °F -0.9 °F 64% 30.03 in 9.0 mi NW 11.5 mph 24.2 mph 0.00 in   Overcast
1:53 AM 8.6 °F -3.7 °F -0.4 °F 67% 30.01 in 10.0 mi NW 8.1 mph 19.6 mph N/A   Overcast
2:02 AM 8.1 °F -5.3 °F -0.0 °F 70% 30.01 in 2.5 mi NW 9.2 mph - 0.00 in Snow Light Snow
2:11 AM 8.1 °F -7.0 °F 1.9 °F 76% 30.02 in 1.0 mi NW 11.5 mph - 0.00 in Snow Light Snow
2:17 AM 8.1 °F -7.0 °F 3.0 °F 80% 30.02 in 0.8 mi NW 11.5 mph - 0.00 in Snow Light Snow
2:27 AM 8.1 °F -7.7 °F 1.9 °F 76% 30.03 in 1.0 mi NW 12.7 mph 25.3 mph 0.01 in Snow Light Snow
2:32 AM 8.1 °F -7.0 °F -0.0 °F 70% 30.03 in 3.0 mi WNW 11.5 mph 25.3 mph 0.01 in Snow Light Snow
2:53 AM 7.0 °F -11.0 °F -4.0 °F 61% 30.11 in 7.0 mi NW 16.1 mph 29.9 mph 0.01 in   Overcast
3:53 AM 3.9 °F -13.0 °F -8.0 °F 58% 30.14 in 10.0 mi NW 12.7 mph 23.0 mph N/A   Scattered Clouds
4:19 AM 3.0 °F -14.1 °F -8.0 °F 60% 30.10 in 10.0 mi NW 12.7 mph 25.3 mph N/A   Overcast
4:35 AM 3.0 °F -14.8 °F -9.0 °F 57% 30.10 in 10.0 mi NW 13.8 mph 23.0 mph N/A   Mostly Cloudy
4:51 AM 1.4 °F -15.3 °F -7.6 °F 66% 30.11 in 10.0 mi WNW 11.5 mph 20.7 mph N/A   Overcast
4:53 AM 1.9 °F -14.7 °F -8.0 °F 63% 30.17 in 10.0 mi NW 11.5 mph 20.7 mph N/A   Overcast
5:26 AM 1.9 °F -15.5 °F -9.0 °F 60% 30.12 in 10.0 mi NW 12.7 mph 17.3 mph N/A   Scattered Clouds
5:53 AM 1.0 °F -14.9 °F -9.9 °F 60% 30.19 in 10.0 mi WNW 10.4 mph - N/A   Partly Cloudy
6:53 AM -0.0 °F -7.9 °F -9.9 °F 63% 30.22 in 10.0 mi West 3.5 mph - N/A   Partly Cloudy
7:53 AM -0.0 °F -11.6 °F -9.9 °F 63% 30.25 in 10.0 mi Variable 5.8 mph - N/A   Partly Cloudy
8:11 AM -0.0 °F -11.6 °F -9.0 °F 66% 30.19 in 10.0 mi West 5.8 mph - N/A   Mostly Cloudy
8:35 AM 1.0 °F -14.9 °F -8.0 °F 66% 30.21 in 10.0 mi WNW 10.4 mph - N/A   Scattered Clouds
8:53 AM 1.0 °F -14.9 °F -9.0 °F 63% 30.29 in 10.0 mi WNW 10.4 mph - N/A   Mostly Cloudy
9:48 AM 1.4 °F -17.6 °F -9.4 °F 61% 30.24 in 10.0 mi WNW 15.0 mph 26.5 mph N/A   Mostly Cloudy
9:53 AM 1.9 °F -14.7 °F -9.9 °F 58% 30.30 in 10.0 mi WNW 11.5 mph 23.0 mph N/A   Mostly Cloudy
10:05 AM 1.9 °F -16.9 °F -9.9 °F 58% 30.24 in 10.0 mi WNW 15.0 mph 25.3 mph N/A   Mostly Cloudy
10:53 AM 1.9 °F -16.2 °F -9.0 °F 60% 30.30 in 10.0 mi WNW 13.8 mph 24.2 mph N/A   Overcast
11:53 AM 3.0 °F -15.5 °F -9.0 °F 57% 30.30 in 10.0 mi WNW 15.0 mph 18.4 mph N/A   Mostly Cloudy
12:53 PM 3.9 °F -14.3 °F -11.0 °F 50% 30.30 in 10.0 mi WNW 15.0 mph 27.6 mph N/A   Mostly Cloudy
1:53 PM 3.9 °F -10.4 °F -11.9 °F 48% 30.29 in 10.0 mi West 9.2 mph 21.9 mph N/A   Scattered Clouds
2:53 PM 5.0 °F -10.8 °F -11.2 °F 47% 30.25 in 10.0 mi West 11.5 mph 23.0 mph N/A   Partly Cloudy
3:53 PM 5.0 °F -6.9 °F -11.0 °F 48% 30.32 in 10.0 mi West 6.9 mph 17.3 mph N/A   Clear
4:53 PM 3.9 °F -9.4 °F -11.0 °F 50% 30.35 in 10.0 mi West 8.1 mph 16.1 mph N/A   Clear
5:53 PM 3.0 °F -11.5 °F -11.0 °F 52% 30.36 in 10.0 mi West 9.2 mph - N/A   Clear
6:53 PM 1.0 °F -11.7 °F -9.9 °F 60% 30.39 in 10.0 mi Variable 6.9 mph - N/A   Clear
7:53 PM 1.0 °F -8.7 °F -9.0 °F 63% 30.40 in 10.0 mi West 4.6 mph - N/A   Clear
8:53 PM -0.0 °F -11.6 °F -9.0 °F 66% 30.41 in 10.0 mi Variable 5.8 mph - N/A   Clear
9:53 PM -0.0 °F -11.6 °F -8.0 °F 69% 30.41 in 10.0 mi West 5.8 mph - N/A   Clear
10:53 PM -0.9 °F - -8.0 °F 72% 30.41 in 10.0 mi Calm Calm - N/A   Clear
11:53 PM -0.9 °F - -8.0 °F 72% 30.41 in 10.0 mi Calm Calm - N/A   Clear